Home > Weather > West Covina > Past weeks

Flag for U.S.A. Weather for the Past 2 Weeks in West Covina, California, U.S.A.

Now
52 °F

Fog.


Feels Like: 52 °F
Forecast: 53 / 86 °F
Wind: No wind

Location: Fullerton Municipal Airport

Current Time: Feb 14, 2016 at 3:11:35 AM

Latest Report: Feb 14, 2016 at 1:53 AM


Visibility: 4 mi

Pressure: 30.05 "Hg

Humidity: 86%

Dew point: 48 °F

Location of West CovinaLocation

Historic Weather in West Covina — Graph

°F

West Covina Temperature Yesterday

Maximum temperature yesterday: 72 °F (at 12:53 PM)
Minimum temperature yesterday: 50 °F (at 5:53 AM)
Average temperature yesterday: 60 °F

High & Low Weather Summary for the Past Weeks

 TemperatureHumidityPressure
High92 °F (Feb 9, 1:53 PM)90% (Jan 31, 1:02 AM)30.35 "Hg (Jan 31, 1:02 AM)
Low36 °F (Feb 2, 5:53 AM)8% (Feb 7, 2:53 PM)29.61 "Hg (Jan 31, 2:00 PM)
Average62 °F42%30.10 "Hg
* Reported Jan 30 1:00 AM — Feb 14 1:53 AM, West Covina, Weather by CustomWeather, © 2016

Note: Actual official high and low records may vary slightly from our data, if they occured in-between our weather recording intervals... More about our weather records

Advertising

West Covina Weather History for the Previous 24 Hours

 ConditionsComfort  
Time TempWeatherWind HumidityBarometerVisibility
1:53 AM
Sun, Feb 14
52 °FFog.No wind86%30.05 "Hg4 mi
12:53 AM53 °FFog.No wind86%30.05 "Hg4 mi
11:53 PM
Sat, Feb 13
54 °FFog.No wind86%30.05 "Hg4 mi
10:53 PM56 °FClear.No wind81%30.05 "Hg4 mi
9:53 PM58 °FClear.No wind81%30.06 "Hg4 mi
8:53 PM59 °FClear.No wind84%30.04 "Hg5 mi
7:53 PM60 °FClear.No wind78%30.03 "Hg5 mi
6:53 PM63 °FClear.No wind70%30.04 "Hg6 mi
5:53 PM66 °FClear.No wind61%30.01 "Hg7 mi
4:53 PM68 °FSunny.No wind57%30.01 "Hg6 mi
3:53 PM67 °FSunny.5 mph61%30.02 "Hg5 mi
2:53 PM69 °FSunny.6 mph55%30.02 "Hg5 mi
1:53 PM69 °FSunny.5 mph47%30.03 "Hg6 mi
12:53 PM72 °FSunny.6 mph48%30.03 "Hg6 mi
11:53 AM71 °FSunny.6 mph45%30.04 "Hg7 mi
10:53 AM67 °FSunny.No wind53%30.08 "Hg5 mi
9:53 AM63 °FSunny.No wind60%30.09 "Hg5 mi
8:53 AM60 °FSunny.No wind53%30.09 "Hg5 mi
7:53 AM53 °FSunny.No wind80%30.09 "Hg5 mi
6:53 AM50 °FSunny.No wind83%30.10 "Hg5 mi
5:53 AM50 °FFog.No wind86%30.08 "Hg4 mi
4:53 AM52 °FPassing clouds.No wind77%30.07 "Hg8 mi
3:53 AM51 °FPassing clouds.No wind77%30.07 "Hg10 mi
Weather by CustomWeather, © 2016

See weather overviewHow to use our weather pages